Retour au catalogue

BLOCK DM-SL R/B

ActifGTO
NORAD 26452·ROCKET BODY· XX

Lancé Jul 28, 2000 depuis Sea Launch Platform

Loading…

TLE

VieillissantSource: Space-Track

Époque: Sep 14, 2026, 10:24 UTC

1 26452U 00043B   26257.43379437 -.00000179  00000-0  00000-0 0  9996
2 26452   1.6347  50.5450 6702087 316.7510   9.2171  2.16744906206539

Suivez BLOCK DM-SL R/B en temps réel avec AllMySat

Download on the App Store